DAL194 KATL-LEBL

Flight info

Callsign DAL194
Flight time N/A
Altitude 37000
Route PHIIL3 HRTWL Q64 TYI DCT ORF AR9 ZIBUT DCT LARGE/N0483F390 DCT SLATN/M084F370 NATY 40N060W/M084F390 43N040W 44N030W 44N020W/M084F410 DCT MUDOS/N0485F410 DCT STG DCT SUSOS/N0494F400 N725 DGO/N0500F320 N725 ELSAP/N0502F300 N725 LOBAR
Aircraft A359/H-SDE2E3GHIJ3J4J5LM1ORWXY/LB1D1

Departure

Time 2026-05-05 04:38
Airport Hartsfield Jackson Atlanta International Airport (KATL)

Arrival

Time N/A
Airport Josep Tarradellas Barcelona-El Prat Airport (LEBL)
Time Latitude Longitude Altitude Speed Heading
2026-05-05 04:05 33.63799 -84.42050 984 ft 0 kts 90°
2026-05-05 04:28 33.63799 -84.42059 984 ft 2 kts 90°
2026-05-05 04:28 33.63799 -84.42077 985 ft 2 kts 90°
2026-05-05 04:28 33.63799 -84.42095 987 ft 2 kts 101°
2026-05-05 04:29 33.63804 -84.42112 987 ft 2 kts 119°
2026-05-05 04:29 33.63813 -84.42127 988 ft 2 kts 134°
2026-05-05 04:29 33.63824 -84.42137 988 ft 2 kts 150°
2026-05-05 04:29 33.63838 -84.42144 989 ft 2 kts 166°
2026-05-05 04:30 33.63851 -84.42147 989 ft 0 kts 180°
2026-05-05 04:30 33.63853 -84.42146 989 ft 0 kts 181°
2026-05-05 04:33 33.63834 -84.42147 989 ft 5 kts 181°
2026-05-05 04:34 33.63776 -84.42149 989 ft 10 kts 182°
2026-05-05 04:34 33.63698 -84.42147 989 ft 11 kts 173°
2026-05-05 04:34 33.63653 -84.42077 987 ft 13 kts 85°
2026-05-05 04:34 33.63657 -84.41956 981 ft 17 kts 93°
2026-05-05 04:35 33.63653 -84.41790 973 ft 22 kts 91°
2026-05-05 04:35 33.63652 -84.41595 969 ft 24 kts 90°
2026-05-05 04:35 33.63652 -84.41382 967 ft 25 kts 90°
2026-05-05 04:35 33.63650 -84.41166 967 ft 26 kts 91°
2026-05-05 04:36 33.63651 -84.40972 963 ft 17 kts 88°
2026-05-05 04:36 33.63654 -84.40856 958 ft 14 kts 89°
2026-05-05 04:36 33.63620 -84.40749 953 ft 13 kts 155°
2026-05-05 04:36 33.63528 -84.40742 952 ft 8 kts 180°
2026-05-05 04:37 33.63471 -84.40755 953 ft 7 kts 220°
2026-05-05 04:37 33.63467 -84.40799 955 ft 4 kts 279°
2026-05-05 04:37 33.63468 -84.40813 956 ft 0 kts 276°
2026-05-05 04:37 33.63469 -84.40831 957 ft 15 kts 275°
2026-05-05 04:38 33.63468 -84.41278 968 ft 89 kts 269°
2026-05-05 04:38 33.63469 -84.42286 997 ft 150 kts 270°
2026-05-05 04:38 33.63465 -84.43669 1336 ft 172 kts 268°
2026-05-05 04:38 33.63459 -84.45105 1969 ft 175 kts 266°
2026-05-05 04:39 33.63443 -84.46576 2633 ft 179 kts 265°
2026-05-05 04:39 33.63345 -84.48023 3106 ft 176 kts 248°
2026-05-05 04:39 33.62741 -84.49325 3382 ft 184 kts 236°
2026-05-05 04:39 33.62069 -84.50703 3665 ft 197 kts 238°
2026-05-05 04:40 33.61395 -84.52205 3942 ft 212 kts 240°
2026-05-05 04:40 33.60692 -84.53848 4234 ft 229 kts 242°
2026-05-05 04:40 33.59962 -84.55600 4583 ft 244 kts 242°
2026-05-05 04:40 33.59003 -84.57349 4953 ft 256 kts 220°
2026-05-05 04:41 33.57440 -84.58331 5636 ft 258 kts 193°
2026-05-05 04:41 33.55654 -84.58456 6362 ft 259 kts 181°
2026-05-05 04:41 33.53995 -84.58443 6913 ft 265 kts 181°
2026-05-05 04:41 33.52149 -84.58433 7567 ft 269 kts 181°
2026-05-05 04:42 33.50243 -84.58428 8229 ft 273 kts 181°
2026-05-05 04:42 33.48375 -84.58113 8804 ft 280 kts 159°
2026-05-05 04:42 33.46770 -84.56797 9489 ft 285 kts 133°
2026-05-05 04:42 33.45787 -84.54734 10099 ft 291 kts 106°
2026-05-05 04:43 33.45583 -84.52322 10591 ft 300 kts 91°
2026-05-05 04:43 33.45597 -84.49764 10911 ft 315 kts 91°
2026-05-05 04:43 33.45618 -84.47059 11210 ft 330 kts 91°
2026-05-05 04:43 33.45624 -84.44252 11494 ft 345 kts 91°
2026-05-05 04:44 33.45615 -84.41325 11764 ft 359 kts 91°
2026-05-05 04:44 33.45600 -84.38303 12034 ft 373 kts 91°
2026-05-05 04:44 33.45671 -84.35141 12282 ft 387 kts 86°
2026-05-05 04:44 33.46063 -84.31898 12534 ft 401 kts 79°
2026-05-05 04:45 33.46783 -84.28635 12883 ft 411 kts 74°
2026-05-05 04:45 33.47617 -84.25342 13421 ft 415 kts 73°
2026-05-05 04:45 33.48472 -84.22044 13978 ft 418 kts 73°
2026-05-05 04:45 33.49325 -84.18730 14446 ft 423 kts 73°
2026-05-05 04:46 33.50192 -84.15337 14958 ft 425 kts 73°
2026-05-05 04:46 33.51054 -84.11943 15464 ft 428 kts 73°
2026-05-05 04:46 33.51915 -84.08546 15928 ft 432 kts 73°
2026-05-05 04:46 33.52786 -84.05093 16410 ft 435 kts 73°
2026-05-05 04:47 33.53667 -84.01601 16868 ft 438 kts 73°
2026-05-05 04:47 33.54547 -83.98098 17340 ft 442 kts 72°
2026-05-05 04:47 33.55430 -83.94582 17814 ft 445 kts 72°
2026-05-05 04:47 33.56324 -83.91017 18263 ft 448 kts 72°
2026-05-05 04:48 33.57216 -83.87447 18686 ft 451 kts 72°
2026-05-05 04:48 33.58192 -83.83827 19097 ft 455 kts 69°
2026-05-05 04:48 33.59331 -83.80288 19512 ft 457 kts 66°
2026-05-05 04:48 33.60618 -83.76806 19946 ft 460 kts 64°
2026-05-05 04:49 33.61942 -83.73344 20344 ft 463 kts 64°
2026-05-05 04:49 33.63295 -83.69817 20751 ft 466 kts 64°
2026-05-05 04:49 33.64577 -83.66260 21137 ft 469 kts 67°
2026-05-05 04:49 33.65675 -83.62559 21536 ft 473 kts 71°
2026-05-05 04:50 33.66557 -83.58779 21920 ft 476 kts 75°
2026-05-05 04:50 33.67305 -83.54890 22300 ft 478 kts 76°
2026-05-05 04:50 33.68033 -83.50942 22662 ft 481 kts 76°
2026-05-05 04:50 33.68752 -83.47020 23013 ft 484 kts 76°
2026-05-05 04:51 33.69478 -83.43083 23366 ft 487 kts 76°
2026-05-05 04:51 33.70212 -83.39122 23739 ft 488 kts 76°
2026-05-05 04:51 33.70954 -83.35122 24114 ft 490 kts 76°
2026-05-05 04:51 33.71688 -83.31162 24426 ft 493 kts 76°
2026-05-05 04:52 33.72432 -83.27142 24735 ft 495 kts 76°
2026-05-05 04:52 33.73180 -83.23091 25047 ft 497 kts 76°
2026-05-05 04:52 33.73965 -83.19004 25373 ft 498 kts 73°
2026-05-05 04:52 33.75011 -83.15098 25628 ft 499 kts 67°
2026-05-05 04:53 33.76433 -83.11262 25928 ft 499 kts 60°
2026-05-05 04:53 33.78159 -83.07639 26223 ft 499 kts 56°
2026-05-05 04:53 33.79984 -83.04109 26495 ft 501 kts 55°
2026-05-05 04:53 33.81857 -83.00549 26691 ft 504 kts 55°
2026-05-05 04:54 33.83718 -82.97003 26952 ft 505 kts 55°
2026-05-05 04:54 33.85590 -82.93417 27216 ft 507 kts 55°
2026-05-05 04:54 33.87474 -82.89784 27481 ft 508 kts 55°
2026-05-05 04:54 33.89334 -82.86179 27714 ft 510 kts 56°
2026-05-05 04:55 33.91208 -82.82543 27940 ft 512 kts 56°
2026-05-05 04:55 33.93074 -82.78919 28245 ft 511 kts 56°
2026-05-05 04:55 33.94918 -82.75323 28665 ft 509 kts 56°
2026-05-05 04:55 33.96795 -82.71661 29031 ft 507 kts 55°
2026-05-05 04:56 33.98625 -82.68089 29362 ft 507 kts 56°
2026-05-05 04:56 34.00477 -82.64445 29690 ft 506 kts 56°
2026-05-05 04:56 34.02291 -82.60855 29984 ft 505 kts 56°
2026-05-05 04:56 34.04121 -82.57230 30290 ft 504 kts 56°
2026-05-05 04:57 34.05930 -82.53640 30574 ft 504 kts 56°
2026-05-05 04:57 34.07764 -82.50001 30820 ft 504 kts 55°
2026-05-05 04:57 34.09573 -82.46410 31036 ft 504 kts 55°
2026-05-05 04:57 34.11397 -82.42802 31266 ft 504 kts 55°
2026-05-05 04:58 34.13216 -82.39214 31533 ft 503 kts 55°
2026-05-05 04:58 34.15034 -82.35624 31812 ft 502 kts 55°
2026-05-05 04:58 34.16854 -82.32007 32048 ft 502 kts 56°
2026-05-05 04:58 34.18656 -82.28399 32250 ft 502 kts 56°
2026-05-05 04:59 34.20472 -82.24763 32469 ft 502 kts 56°
2026-05-05 04:59 34.22256 -82.21188 32673 ft 502 kts 56°
2026-05-05 04:59 34.24049 -82.17602 32919 ft 501 kts 56°
2026-05-05 04:59 34.25864 -82.13974 33143 ft 500 kts 55°
2026-05-05 05:00 34.27665 -82.10394 33349 ft 500 kts 55°
2026-05-05 05:00 34.29464 -82.06823 33544 ft 500 kts 55°
2026-05-05 05:00 34.31271 -82.03236 33740 ft 500 kts 55°
2026-05-05 05:00 34.33064 -81.99671 33903 ft 500 kts 55°
2026-05-05 05:01 34.34882 -81.96053 34102 ft 499 kts 55°
2026-05-05 05:01 34.36677 -81.92476 34281 ft 499 kts 55°
2026-05-05 05:01 34.38462 -81.88914 34442 ft 499 kts 55°
2026-05-05 05:01 34.40253 -81.85336 34589 ft 499 kts 55°
2026-05-05 05:02 34.42060 -81.81719 34747 ft 498 kts 55°
2026-05-05 05:02 34.43827 -81.78177 34884 ft 498 kts 54°
2026-05-05 05:02 34.45620 -81.74586 35023 ft 498 kts 55°
2026-05-05 05:02 34.47420 -81.70978 35156 ft 498 kts 54°
2026-05-05 05:03 34.49193 -81.67417 35260 ft 498 kts 54°
2026-05-05 05:03 34.52788 -81.60194 35451 ft 499 kts 54°
2026-05-05 05:03 34.54558 -81.56626 35553 ft 499 kts 54°
2026-05-05 05:04 34.56342 -81.53030 35658 ft 499 kts 54°
2026-05-05 05:04 34.59932 -81.45780 35810 ft 501 kts 54°
2026-05-05 05:05 34.63512 -81.38535 36008 ft 501 kts 54°
2026-05-05 05:05 34.67081 -81.31291 36154 ft 502 kts 55°
2026-05-05 05:06 34.70653 -81.24002 36260 ft 503 kts 55°
2026-05-05 05:06 34.74252 -81.16673 36385 ft 504 kts 55°
2026-05-05 05:07 34.77853 -81.09326 36517 ft 505 kts 56°
2026-05-05 05:07 34.81131 -81.01716 36639 ft 509 kts 62°
2026-05-05 05:08 34.84020 -80.93906 36786 ft 510 kts 63°
2026-05-05 05:08 34.86910 -80.86002 36913 ft 511 kts 62°
2026-05-05 05:09 34.89792 -80.78142 37035 ft 511 kts 62°
2026-05-05 05:09 34.92689 -80.70242 37045 ft 512 kts 63°
2026-05-05 05:10 34.95590 -80.62314 37049 ft 512 kts 63°
2026-05-05 05:10 34.98470 -80.54427 37047 ft 512 kts 63°
2026-05-05 05:11 35.01363 -80.46484 37036 ft 512 kts 63°
2026-05-05 05:11 35.04236 -80.38575 37036 ft 512 kts 63°
2026-05-05 05:12 35.07116 -80.30617 37027 ft 512 kts 63°
2026-05-05 05:12 35.09991 -80.22636 37027 ft 512 kts 63°
2026-05-05 05:13 35.12862 -80.14745 37033 ft 513 kts 63°
2026-05-05 05:13 35.15756 -80.06746 37038 ft 512 kts 64°
2026-05-05 05:14 35.18603 -79.98811 37040 ft 511 kts 64°
2026-05-05 05:14 35.21450 -79.90865 37025 ft 511 kts 64°
2026-05-05 05:15 35.24304 -79.82890 37031 ft 512 kts 64°
2026-05-05 05:15 35.27138 -79.74947 37031 ft 512 kts 64°
2026-05-05 05:16 35.29977 -79.66969 37030 ft 512 kts 64°
2026-05-05 05:16 35.32808 -79.58993 37030 ft 512 kts 64°
2026-05-05 05:17 35.35649 -79.50968 37034 ft 513 kts 64°
2026-05-05 05:17 35.38470 -79.42981 37038 ft 513 kts 64°
2026-05-05 05:18 35.41291 -79.34965 37043 ft 512 kts 64°
2026-05-05 05:18 35.44099 -79.26945 37040 ft 512 kts 64°
2026-05-05 05:19 35.46885 -79.18974 37046 ft 512 kts 64°
2026-05-05 05:19 35.49686 -79.10957 37046 ft 512 kts 64°
2026-05-05 05:20 35.52491 -79.02915 37045 ft 513 kts 64°
2026-05-05 05:20 35.55289 -78.94871 37042 ft 513 kts 64°
2026-05-05 05:21 35.58067 -78.86867 37048 ft 513 kts 64°
2026-05-05 05:21 35.60850 -78.78823 37044 ft 512 kts 64°
2026-05-05 05:22 35.63631 -78.70747 37038 ft 512 kts 64°
2026-05-05 05:22 35.66383 -78.62740 37039 ft 512 kts 64°
2026-05-05 05:23 35.69147 -78.54685 37034 ft 513 kts 64°
2026-05-05 05:23 35.71910 -78.46609 37038 ft 512 kts 64°
2026-05-05 05:24 35.74654 -78.38561 37037 ft 512 kts 64°
2026-05-05 05:24 35.77404 -78.30466 37031 ft 514 kts 65°
2026-05-05 05:25 35.80142 -78.22369 37034 ft 515 kts 65°
2026-05-05 05:25 35.82890 -78.14251 37031 ft 515 kts 65°
2026-05-05 05:26 35.85642 -78.06109 37034 ft 515 kts 65°
2026-05-05 05:26 35.88378 -77.97994 37037 ft 515 kts 65°
2026-05-05 05:27 35.91104 -77.89896 37039 ft 514 kts 65°
2026-05-05 05:27 35.95227 -77.77688 37039 ft 513 kts 63°
2026-05-05 05:28 35.98440 -77.69930 37041 ft 510 kts 56°
2026-05-05 05:28 36.02345 -77.62659 37044 ft 506 kts 49°
2026-05-05 05:29 36.06598 -77.55799 37040 ft 507 kts 48°
2026-05-05 05:29 36.10901 -77.48907 37032 ft 506 kts 49°
2026-05-05 05:30 36.15223 -77.41986 37032 ft 507 kts 49°
2026-05-05 05:30 36.19493 -77.35098 37034 ft 507 kts 49°
2026-05-05 05:31 36.23772 -77.28127 37038 ft 507 kts 49°
2026-05-05 05:31 36.28016 -77.21193 37046 ft 507 kts 49°
2026-05-05 05:32 36.32273 -77.14239 37039 ft 507 kts 49°
2026-05-05 05:32 36.36504 -77.07321 37032 ft 506 kts 49°
2026-05-05 05:33 36.40763 -77.00343 37030 ft 507 kts 49°
2026-05-05 05:33 36.45020 -76.93355 37018 ft 507 kts 49°
2026-05-05 05:34 36.49249 -76.86398 37015 ft 507 kts 49°
2026-05-05 05:34 36.53493 -76.79405 37013 ft 507 kts 49°
2026-05-05 05:35 36.57695 -76.72465 37019 ft 507 kts 49°
2026-05-05 05:35 36.61945 -76.65432 37022 ft 507 kts 50°
2026-05-05 05:36 36.66173 -76.58420 37028 ft 507 kts 49°
2026-05-05 05:36 36.70386 -76.51417 37022 ft 506 kts 50°
2026-05-05 05:37 36.74595 -76.44409 37019 ft 507 kts 49°
2026-05-05 05:37 36.78796 -76.37398 37021 ft 507 kts 49°